Location: Chippewa Lake
(41.0698°N, 81.9010°W)
Time: 19:40:11
(UTC+00:00)

USA 276 - Pass Details

Date: 09 May 2021
Orbit: 383 x 389 km, 50.0° (Epoch: 01 June)

Event Time Altitude Azimuth Distance (km) Brightness Sun altitude
Exits shadow 08:04:42 47° 340° (NNW) 521 2.8 -20.6°
Drops below altitude 10° 08:07:40 10° 49° (NE) 1,412 6.1 -20.3°
Sets 08:09:46 0° 55° (NE) 2,267 7.4 -20.0°
